Location: Agadir-Ikarkaouin
(31.1503°N, 9.0246°W)
Time: 02:47:35
(UTC+00:00)

Meteor 1-23 Rocket - Pass Details

Date: 18 September 2020
Orbit: 835 x 890 km, 81.3° (Epoch: 23 October)

Event Time Altitude Azimuth Distance (km) Brightness Sun altitude
Rises 18:49:40 0° 351° (N) 3,416 7.5 -3.5°
Reaches altitude 10° 18:52:06 10° 351° (N) 2,471 6.8 -4.0°
Maximum altitude 18:57:42 83° 264° (W) 849 4.4 -5.2°
Drops below altitude 10° 19:03:13 10° 177° (S) 2,438 6.5 -6.3°
Sets 19:05:36 0° 176° (S) 3,367 7.2 -6.9°
